Carbondale, IL

4:39 AM CDT on October 17, 2017 (GMT -0500)
Southern Illinois

Weather History for KMDH - April, 2013

Change the Weather History Date:

Sunday, April 21, 2013

  Actual Average Record
Temperature  
Mean Temperature 50 °F -  
Max Temperature 64 °F 71 °F 90 °F (1987)
Min Temperature 37 °F 48 °F 29 °F (1943)
Degree Days  
Heating Degree Days 15    
Moisture  
Dew Point 34 °F    
Average Humidity 54    
Maximum Humidity 79    
Minimum Humidity 37    
Precipitation  
Precipitation 0.00 in - - ()
Sea Level Pressure  
Sea Level Pressure 30.35 in    
Wind  
Wind Speed 6 mph (East)    
Max Wind Speed 10 mph    
Max Gust Speed 22 mph    
Visibility 10 miles    
Events      
Averages and records for this station are not official NWS values.
T = Trace of Precipitation, MM = Missing Value Source: NWS Daily Summary

Daily Weather History Graph

Daily Weather History Graph

Search for Another Location

Airport or City:

Trip Planner

Search our weather history database for the weather conditions in past years. The results will help you decide how hot, cold, wet, or windy it might be!

Date:

Astronomy

Apr. 21, 2013 Rise Set
Actual Time 6:13 AM CDT 7:38 PM CDT
Civil Twilight 5:45 AM CDT 8:06 PM CDT
Nautical Twilight 5:12 AM CDT 8:39 PM CDT
Astronomical Twilight 4:38 AM CDT 9:13 PM CDT
Moon 3:28 PM CDT (4/21) 3:30 AM CDT (4/21)
Length of Visible Light 14h 20m
Length of Day
13h 25m
Waxing Gibbous, 80% of the Moon is Illuminated
Apr 21
Waxing Gibbous
Apr 25
Full
May 2
Last Quarter
May 9
New
May 17
First Quarter

Hourly Weather History & Observations

Time (CDT) Temp. Windchill Dew Point Humidity Pressure Visibility Wind Dir Wind Speed Gust Speed Precip Events Conditions
12:52 AM 44.1 °F 40.8 °F 30.9 °F 60% 30.37 in 10.0 mi East 5.8 mph - N/A   Clear
1:52 AM 42.1 °F 37.7 °F 32.0 °F 67% 30.37 in 10.0 mi East 6.9 mph - N/A   Clear
2:52 AM 39.9 °F 35.8 °F 32.0 °F 73% 30.36 in 10.0 mi East 5.8 mph - N/A   Clear
3:52 AM 39.9 °F 36.7 °F 32.0 °F 73% 30.37 in 10.0 mi East 4.6 mph - N/A   Clear
4:52 AM 39.0 °F 34.8 °F 32.0 °F 76% 30.38 in 10.0 mi East 5.8 mph - N/A   Clear
5:52 AM 37.9 °F 33.5 °F 32.0 °F 79% 30.39 in 10.0 mi ENE 5.8 mph - N/A   Clear
6:52 AM 39.0 °F 36.8 °F 33.1 °F 79% 30.42 in 10.0 mi East 3.5 mph - N/A   Clear
7:52 AM 44.1 °F 39.0 °F 33.1 °F 65% 30.43 in 10.0 mi East 9.2 mph - N/A   Clear
8:52 AM 48.0 °F - 33.1 °F 56% 30.44 in 10.0 mi ESE 10.4 mph - N/A   Clear
9:52 AM 51.1 °F - 34.0 °F 52% 30.44 in 10.0 mi East 9.2 mph - N/A   Clear
10:52 AM 55.0 °F - 36.0 °F 49% 30.43 in 10.0 mi East 9.2 mph - N/A   Clear
11:52 AM 57.9 °F - 36.0 °F 44% 30.40 in 10.0 mi East 8.1 mph - N/A   Clear
12:52 PM 59.0 °F - 36.0 °F 42% 30.38 in 10.0 mi East 4.6 mph - N/A   Clear
1:52 PM 61.0 °F - 35.1 °F 38% 30.36 in 10.0 mi Variable 3.5 mph - N/A   Clear
2:52 PM 63.0 °F - 36.0 °F 37% 30.33 in 10.0 mi SE 4.6 mph - N/A   Clear
3:52 PM 63.0 °F - 37.0 °F 38% 30.30 in 10.0 mi ENE 6.9 mph - N/A   Clear
4:52 PM 63.0 °F - 37.9 °F 40% 30.28 in 10.0 mi ENE 8.1 mph - N/A   Clear
5:52 PM 62.1 °F - 36.0 °F 38% 30.28 in 10.0 mi East 10.4 mph - N/A   Clear
6:52 PM 59.0 °F - 34.0 °F 39% 30.29 in 10.0 mi East 8.1 mph 21.9 mph N/A   Clear
7:52 PM 54.0 °F - 34.0 °F 47% 30.29 in 10.0 mi East 6.9 mph - N/A   Clear
8:52 PM 54.0 °F - 34.0 °F 47% 30.28 in 10.0 mi East 8.1 mph - N/A   Clear
9:52 PM 52.0 °F - 34.0 °F 50% 30.30 in 10.0 mi East 5.8 mph - N/A   Clear
10:52 PM 51.1 °F - 34.0 °F 52% 30.29 in 10.0 mi East 4.6 mph - N/A   Clear
11:52 PM 46.9 °F - 36.0 °F 66% 30.29 in 10.0 mi Calm Calm - N/A   Clear